When you browse on this site, cookies collect data to enhance your experience and personalize the content and advertising you see.
Visit our Privacy Policy to learn more. By continuing to use the site, you agree to this use of cookies and data.
  • In Hungary
  • List of Countries
  • For 7 days
  • Water Temperature
  • Satellite Maps
  • Weather Map
  • News
  • Weather Widgets
  • user-avatar
    Login

    Hourly Weather Maskat

    Today, 21 March, Thursday

    Time Temperature Precipitation Wind Pressure Humidity
    00:00 +22°C° 0 mm 0 mps 753 mmHg 37%
    01:00 +22°C° 0 mm 0 mps 752 mmHg 37%
    02:00 +22°C° 0 mm 0 mps 752 mmHg 41%
    03:00 +21°C° 0 mm 0 mps 752 mmHg 44%
    04:00 +21°C° 0 mm 0 mps 752 mmHg 48%
    05:00 +21°C° 0 mm 0 mps 752 mmHg 49%
    06:00 +24°C° 0 mm 1 mps 753 mmHg 49%
    07:00 +24°C° 0 mm 1 mps 753 mmHg 49%
    08:00 +26°C° 0 mm 1 mps 754 mmHg 44%
    09:00 +27°C° 0 mm 1 mps 754 mmHg 40%
    10:00 +29°C° 0 mm 2 mps 754 mmHg 39%
    11:00 +30°C° 0 mm 2 mps 754 mmHg 37%
    12:00 +31°C° 0 mm 3 mps 754 mmHg 35%
    13:00 +33°C° 0 mm 3 mps 754 mmHg 34%
    14:00 +32°C° 0 mm 4 mps 753 mmHg 36%
    15:00 +32°C° 0 mm 4 mps 753 mmHg 37%
    16:00 +32°C° 0 mm 4 mps 752 mmHg 39%
    17:00 +30°C° 0 mm 4 mps 753 mmHg 45%
    18:00 +29°C° 0 mm 4 mps 753 mmHg 51%
    19:00 +27°C° 0 mm 4 mps 753 mmHg 57%
    20:00 +28°C° 0 mm 4 mps 753 mmHg 56%
    21:00 +28°C° 0 mm 4 mps 754 mmHg 55%
    22:00 +28°C° 0 mm 3 mps 754 mmHg 54%
    23:00 +28°C° 0 mm 3 mps 754 mmHg 50%

    Tomorrow, 22 March, Friday

    Time Temperature Precipitation Wind Pressure Humidity
    00:00 +28°C° 0 mm 3 mps 754 mmHg 46%
    01:00 +28°C° 0 mm 2 mps 754 mmHg 42%
    02:00 +28°C° 0 mm 2 mps 754 mmHg 39%
    03:00 +28°C° 0 mm 2 mps 754 mmHg 36%
    04:00 +28°C° 0 mm 1 mps 753 mmHg 33%
    05:00 +28°C° 0 mm 1 mps 754 mmHg 32%
    06:00 +29°C° 0 mm 1 mps 754 mmHg 31%
    07:00 +29°C° 0 mm 1 mps 754 mmHg 31%
    08:00 +30°C° 0 mm 1 mps 755 mmHg 29%
    09:00 +31°C° 0 mm 1 mps 755 mmHg 27%
    10:00 +32°C° 0 mm 1 mps 755 mmHg 25%
    11:00 +34°C° 0 mm 2 mps 755 mmHg 26%
    12:00 +34°C° 0 mm 3 mps 755 mmHg 28%
    13:00 +34°C° 0 mm 4 mps 755 mmHg 29%
    14:00 +33°C° 0.2 mm 3 mps 755 mmHg 36%
    15:00 +30°C° 0.2 mm 3 mps 754 mmHg 42%
    16:00 +28°C° 0.2 mm 2 mps 754 mmHg 48%
    17:00 +28°C° 0.2 mm 2 mps 754 mmHg 48%
    18:00 +28°C° 0.2 mm 2 mps 754 mmHg 48%
    19:00 +28°C° 0.2 mm 2 mps 755 mmHg 48%
    20:00 +28°C° 0 mm 2 mps 755 mmHg 48%
    21:00 +28°C° 0 mm 2 mps 755 mmHg 48%
    22:00 +28°C° 0 mm 2 mps 756 mmHg 47%
    23:00 +28°C° 0 mm 2 mps 756 mmHg 49%

    Day after tomorrow, 23 March, Saturday

    Time Temperature Precipitation Wind Pressure Humidity
    00:00 +27°C° 0 mm 3 mps 755 mmHg 50%
    01:00 +27°C° 0 mm 3 mps 755 mmHg 52%
    02:00 +27°C° 0 mm 3 mps 755 mmHg 49%
    03:00 +27°C° 0 mm 3 mps 755 mmHg 47%
    04:00 +28°C° 0 mm 3 mps 754 mmHg 44%
    05:00 +28°C° 0 mm 3 mps 754 mmHg 45%
    06:00 +28°C° 0 mm 3 mps 755 mmHg 46%
    07:00 +27°C° 0 mm 3 mps 755 mmHg 46%
    08:00 +29°C° 0 mm 3 mps 755 mmHg 40%
    09:00 +31°C° 0 mm 3 mps 756 mmHg 34%
    10:00 +34°C° 0 mm 3 mps 756 mmHg 28%
    11:00 +35°C° 0 mm 4 mps 755 mmHg 27%
    12:00 +36°C° 0 mm 5 mps 755 mmHg 25%
    13:00 +36°C° 0 mm 6 mps 754 mmHg 24%
    14:00 +36°C° 0 mm 7 mps 754 mmHg 25%
    15:00 +36°C° 0 mm 7 mps 753 mmHg 27%
    16:00 +37°C° 0 mm 8 mps 752 mmHg 28%
    17:00 +35°C° 0 mm 7 mps 753 mmHg 31%
    18:00 +34°C° 0 mm 7 mps 753 mmHg 34%
    19:00 +33°C° 0 mm 7 mps 753 mmHg 37%
    20:00 +33°C° 0 mm 6 mps 753 mmHg 37%
    21:00 +33°C° 0 mm 6 mps 754 mmHg 37%
    22:00 +33°C° 0 mm 5 mps 754 mmHg 36%
    23:00 +32°C° 0 mm 5 mps 753 mmHg 38%

    24 March, Sunday

    Time Temperature Precipitation Wind Pressure Humidity
    00:00 +32°C° 0 mm 4 mps 753 mmHg 40%
    01:00 +31°C° 0 mm 3 mps 753 mmHg 41%
    02:00 +30°C° 0 mm 3 mps 752 mmHg 43%
    03:00 +30°C° 0 mm 2 mps 752 mmHg 45%
    04:00 +29°C° 0 mm 2 mps 752 mmHg 47%
    05:00 +29°C° 0 mm 2 mps 752 mmHg 47%
    06:00 +29°C° 0 mm 2 mps 753 mmHg 47%
    07:00 +29°C° 0 mm 1 mps 753 mmHg 47%
    08:00 +30°C° 0 mm 2 mps 753 mmHg 42%
    09:00 +31°C° 0 mm 2 mps 753 mmHg 37%
    10:00 +34°C° 0 mm 3 mps 754 mmHg 32%
    11:00 +34°C° 0 mm 3 mps 753 mmHg 31%
    12:00 +35°C° 0 mm 4 mps 753 mmHg 30%
    13:00 +36°C° 0 mm 4 mps 752 mmHg 30%
    14:00 +35°C° 0 mm 4 mps 752 mmHg 32%
    15:00 +35°C° 0 mm 5 mps 751 mmHg 35%
    16:00 +34°C° 0 mm 5 mps 751 mmHg 37%
    17:00 +33°C° 0 mm 5 mps 751 mmHg 42%
    18:00 +32°C° 0 mm 4 mps 751 mmHg 47%
    19:00 +30°C° 0 mm 4 mps 751 mmHg 52%
    20:00 +30°C° 0 mm 3 mps 752 mmHg 51%
    21:00 +30°C° 0 mm 3 mps 752 mmHg 51%
    22:00 +30°C° 0 mm 2 mps 753 mmHg 51%
    23:00 +29°C° 0 mm 2 mps 752 mmHg 49%

    25 March, Monday

    Time Temperature Precipitation Wind Pressure Humidity
    00:00 +29°C° 0 mm 2 mps 752 mmHg 47%
    01:00 +29°C° 0 mm 1 mps 752 mmHg 45%
    02:00 +29°C° 0 mm 1 mps 752 mmHg 44%
    03:00 +29°C° 0 mm 1 mps 752 mmHg 43%
    04:00 +29°C° 0 mm 2 mps 751 mmHg 42%
    05:00 +29°C° 0 mm 2 mps 752 mmHg 41%
    06:00 +29°C° 0 mm 2 mps 752 mmHg 41%
    07:00 +29°C° 0 mm 2 mps 753 mmHg 40%
    08:00 +31°C° 0 mm 2 mps 753 mmHg 34%
    09:00 +33°C° 0 mm 1 mps 753 mmHg 27%
    10:00 +35°C° 0 mm 1 mps 754 mmHg 21%
    11:00 +37°C° 0 mm 2 mps 753 mmHg 20%
    12:00 +37°C° 0 mm 3 mps 752 mmHg 20%
    13:00 +39°C° 0 mm 5 mps 752 mmHg 19%
    14:00 +39°C° 0 mm 5 mps 751 mmHg 21%
    15:00 +39°C° 0 mm 5 mps 751 mmHg 23%
    16:00 +37°C° 0 mm 5 mps 751 mmHg 24%
    17:00 +36°C° 0 mm 5 mps 751 mmHg 26%
    18:00 +36°C° 0 mm 4 mps 752 mmHg 28%
    19:00 +35°C° 0 mm 4 mps 752 mmHg 30%
    20:00 +35°C° 0 mm 4 mps 752 mmHg 29%
    21:00 +35°C° 0 mm 3 mps 753 mmHg 28%
    22:00 +34°C° 0 mm 3 mps 753 mmHg 27%
    23:00 +34°C° 0 mm 3 mps 753 mmHg 29%

    26 March, Tuesday

    Time Temperature Precipitation Wind Pressure Humidity
    00:00 +33°C° 0 mm 3 mps 753 mmHg 30%
    01:00 +31°C° 0 mm 3 mps 752 mmHg 32%
    02:00 +30°C° 0 mm 3 mps 752 mmHg 31%
    03:00 +30°C° 0 mm 3 mps 752 mmHg 31%
    04:00 +29°C° 0 mm 3 mps 751 mmHg 30%
    05:00 +29°C° 0 mm 3 mps 752 mmHg 29%
    06:00 +29°C° 0 mm 3 mps 752 mmHg 27%
    07:00 +29°C° 0 mm 3 mps 753 mmHg 26%
    08:00 +32°C° 0 mm 2 mps 753 mmHg 20%
    09:00 +35°C° 0 mm 2 mps 753 mmHg 15%
    10:00 +38°C° 0 mm 2 mps 754 mmHg 9%
    11:00 +39°C° 0 mm 3 mps 753 mmHg 9%
    12:00 +41°C° 0 mm 4 mps 753 mmHg 8%
    13:00 +42°C° 0 mm 5 mps 752 mmHg 8%
    14:00 +42°C° 0 mm 5 mps 752 mmHg 10%
    15:00 +41°C° 0 mm 4 mps 752 mmHg 13%
    16:00 +40°C° 0 mm 4 mps 751 mmHg 15%
    17:00 +37°C° 0 mm 4 mps 752 mmHg 20%
    18:00 +36°C° 0 mm 3 mps 752 mmHg 25%
    19:00 +34°C° 0 mm 3 mps 753 mmHg 30%
    20:00 +32°C° 0 mm 2 mps 753 mmHg 29%
    21:00 +32°C° 0 mm 2 mps 753 mmHg 28%
    22:00 +32°C° 0 mm 1 mps 754 mmHg 27%
    23:00 +31°C° 0 mm 2 mps 753 mmHg 28%
    Show more